Time,TemperatureF,DewpointF,PressureIn,WindDirection,WindDirectionDegrees,WindSpeedMPH,WindSpeedGustMPH,Humidity,HourlyPrecipIn,Conditions,Clouds,dailyrainin,SoftwareType,DateUTC
2013-05-06 00:00:00,55.5,49.1,30.11,ENE,64,0.0,1.0,79,0.00,,,0.00,Wunderground v.1.15,2013-05-06 04:00:00,
2013-05-06 00:05:00,55.4,49.0,30.11,ENE,63,0.0,1.0,79,0.00,,,0.00,Wunderground v.1.15,2013-05-06 04:05:00,
2013-05-06 00:15:00,55.3,48.9,30.11,ENE,63,0.0,0.0,79,0.00,,,0.00,Wunderground v.1.15,2013-05-06 04:15:00,
2013-05-06 00:20:00,55.2,48.8,30.11,ENE,64,0.0,0.0,79,0.00,,,0.00,Wunderground v.1.15,2013-05-06 04:20:00,
2013-05-06 00:25:00,55.1,49.0,30.11,ENE,64,0.0,0.0,80,0.00,,,0.00,Wunderground v.1.15,2013-05-06 04:25:00,
2013-05-06 00:35:00,55.0,48.9,30.12,ENE,64,0.0,0.0,80,0.00,,,0.00,Wunderground v.1.15,2013-05-06 04:35:00,
2013-05-06 00:40:00,54.9,48.8,30.12,ENE,64,0.0,0.0,80,0.00,,,0.00,Wunderground v.1.15,2013-05-06 04:40:00,
2013-05-06 00:45:00,54.9,48.8,30.11,ENE,64,0.0,0.0,80,0.00,,,0.00,Wunderground v.1.15,2013-05-06 04:45:00,
2013-05-06 00:50:00,54.8,49.1,30.11,ENE,64,0.0,0.0,81,0.00,,,0.00,Wunderground v.1.15,2013-05-06 04:50:00,
2013-05-06 01:00:00,54.6,49.2,30.11,ENE,64,0.0,0.0,82,0.00,,,0.00,Wunderground v.1.15,2013-05-06 05:00:00,
2013-05-06 01:05:00,54.5,49.1,30.11,ENE,63,0.0,1.0,82,0.00,,,0.00,Wunderground v.1.15,2013-05-06 05:05:00,
2013-05-06 01:15:00,54.1,49.1,30.11,ENE,64,0.0,1.0,83,0.00,,,0.00,Wunderground v.1.15,2013-05-06 05:15:00,
2013-05-06 01:20:00,53.9,49.2,30.11,ENE,63,0.0,0.0,84,0.00,,,0.00,Wunderground v.1.15,2013-05-06 05:20:00,
2013-05-06 01:25:00,53.8,49.1,30.11,ENE,64,0.0,0.0,84,0.00,,,0.00,Wunderground v.1.15,2013-05-06 05:25:00,
2013-05-06 01:35:00,53.6,48.9,30.11,ENE,63,0.0,0.0,84,0.00,,,0.00,Wunderground v.1.15,2013-05-06 05:35:00,
2013-05-06 01:40:00,53.6,48.9,30.11,ENE,64,0.0,0.0,84,0.00,,,0.00,Wunderground v.1.15,2013-05-06 05:40:00,
2013-05-06 01:50:00,53.5,48.8,30.11,ENE,64,0.0,0.0,84,0.00,,,0.00,Wunderground v.1.15,2013-05-06 05:50:00,
2013-05-06 01:55:00,53.5,48.8,30.11,ENE,63,0.0,0.0,84,0.00,,,0.00,Wunderground v.1.15,2013-05-06 05:55:00,
2013-05-06 02:05:00,53.5,48.8,30.11,ENE,63,0.0,0.0,84,0.00,,,0.00,Wunderground v.1.15,2013-05-06 06:05:00,
2013-05-06 02:15:00,53.4,49.0,30.10,ENE,63,0.0,1.0,85,0.00,,,0.00,Wunderground v.1.15,2013-05-06 06:15:00,
2013-05-06 02:25:00,53.3,48.9,30.10,ENE,63,0.0,0.0,85,0.00,,,0.00,Wunderground v.1.15,2013-05-06 06:25:00,
2013-05-06 02:35:00,53.2,48.8,30.10,ENE,63,0.0,0.0,85,0.00,,,0.00,Wunderground v.1.15,2013-05-06 06:35:00,
2013-05-06 02:40:00,53.2,48.8,30.10,ENE,64,0.0,0.0,85,0.00,,,0.00,Wunderground v.1.15,2013-05-06 06:40:00,
2013-05-06 02:50:00,53.1,48.7,30.10,ENE,64,0.0,0.0,85,0.00,,,0.00,Wunderground v.1.15,2013-05-06 06:50:00,
2013-05-06 02:55:00,53.0,48.6,30.09,ENE,64,0.0,0.0,85,0.00,,,0.00,Wunderground v.1.15,2013-05-06 06:55:00,
2013-05-06 03:00:00,52.9,48.8,30.09,ENE,64,0.0,0.0,86,0.00,,,0.00,Wunderground v.1.15,2013-05-06 07:00:00,
2013-05-06 03:05:00,52.8,48.4,30.09,ENE,64,0.0,0.0,85,0.00,,,0.00,Wunderground v.1.15,2013-05-06 07:05:00,
2013-05-06 03:15:00,52.7,48.6,30.08,ENE,63,0.0,0.0,86,0.00,,,0.00,Wunderground v.1.15,2013-05-06 07:15:00,
2013-05-06 03:25:00,52.5,48.4,30.08,ENE,63,0.0,0.0,86,0.00,,,0.00,Wunderground v.1.15,2013-05-06 07:25:00,
2013-05-06 03:30:00,52.5,48.4,30.08,ENE,63,0.0,0.0,86,0.00,,,0.00,Wunderground v.1.15,2013-05-06 07:30:00,
2013-05-06 03:40:00,52.4,48.3,30.07,ENE,64,0.0,0.0,86,0.00,,,0.00,Wunderground v.1.15,2013-05-06 07:40:00,
2013-05-06 03:45:00,52.4,48.3,30.07,ENE,64,0.0,0.0,86,0.00,,,0.00,Wunderground v.1.15,2013-05-06 07:45:00,
2013-05-06 03:55:00,52.4,48.6,30.08,ENE,64,0.0,0.0,87,0.00,,,0.00,Wunderground v.1.15,2013-05-06 07:55:00,
2013-05-06 04:00:00,52.4,48.6,30.07,ENE,63,0.0,0.0,87,0.00,,,0.00,Wunderground v.1.15,2013-05-06 08:00:00,
2013-05-06 04:05:00,52.3,48.5,30.07,ENE,60,0.0,0.0,87,0.00,,,0.00,Wunderground v.1.15,2013-05-06 08:05:00,
2013-05-06 04:15:00,52.1,48.7,30.07,ENE,60,0.0,0.0,88,0.00,,,0.00,Wunderground v.1.15,2013-05-06 08:15:00,
2013-05-06 04:20:00,52.1,48.7,30.07,ENE,60,0.0,0.0,88,0.00,,,0.00,Wunderground v.1.15,2013-05-06 08:20:00,
2013-05-06 04:30:00,52.0,48.3,30.07,ENE,60,0.0,0.0,87,0.00,,,0.00,Wunderground v.1.15,2013-05-06 08:30:00,
2013-05-06 04:35:00,51.9,48.5,30.07,ENE,60,0.0,0.0,88,0.00,,,0.00,Wunderground v.1.15,2013-05-06 08:35:00,
2013-05-06 04:45:00,51.9,48.5,30.07,ENE,60,0.0,0.0,88,0.00,,,0.00,Wunderground v.1.15,2013-05-06 08:45:00,
2013-05-06 04:55:00,51.9,48.5,30.07,ENE,60,0.0,0.0,88,0.00,,,0.00,Wunderground v.1.15,2013-05-06 08:55:00,
2013-05-06 05:00:00,51.9,48.5,30.07,ENE,60,0.0,0.0,88,0.00,,,0.00,Wunderground v.1.15,2013-05-06 09:00:00,
2013-05-06 05:05:00,51.9,48.8,30.07,ENE,60,0.0,0.0,89,0.00,,,0.00,Wunderground v.1.15,2013-05-06 09:05:00,
2013-05-06 05:15:00,51.8,49.0,30.07,ENE,60,0.0,0.0,90,0.00,,,0.00,Wunderground v.1.15,2013-05-06 09:15:00,
2013-05-06 05:20:00,51.7,48.9,30.07,ENE,60,0.0,0.0,90,0.00,,,0.00,Wunderground v.1.15,2013-05-06 09:20:00,
2013-05-06 05:30:00,51.5,48.7,30.07,ENE,60,0.0,0.0,90,0.00,,,0.00,Wunderground v.1.15,2013-05-06 09:30:00,
2013-05-06 05:35:00,51.5,49.0,30.07,ENE,60,0.0,0.0,91,0.00,,,0.00,Wunderground v.1.15,2013-05-06 09:35:00,
2013-05-06 05:40:00,51.4,48.9,30.07,ENE,60,0.0,0.0,91,0.00,,,0.00,Wunderground v.1.15,2013-05-06 09:40:00,
2013-05-06 05:50:00,51.2,49.0,30.07,ENE,60,0.0,0.0,92,0.00,,,0.00,Wunderground v.1.15,2013-05-06 09:50:00,
2013-05-06 06:00:00,51.0,49.0,30.07,ENE,60,0.0,0.0,93,0.00,,,0.00,Wunderground v.1.15,2013-05-06 10:00:00,
2013-05-06 06:05:00,50.9,48.9,30.07,ENE,60,0.0,0.0,93,0.00,,,0.00,Wunderground v.1.15,2013-05-06 10:05:00,
2013-05-06 06:15:00,50.7,49.0,30.07,ENE,60,0.0,0.0,94,0.00,,,0.00,Wunderground v.1.15,2013-05-06 10:15:00,
2013-05-06 06:20:00,50.6,48.9,30.07,ENE,61,0.0,1.0,94,0.00,,,0.00,Wunderground v.1.15,2013-05-06 10:20:00,
2013-05-06 06:25:00,50.6,48.9,30.07,ENE,60,0.0,1.0,94,0.00,,,0.00,Wunderground v.1.15,2013-05-06 10:25:00,
2013-05-06 06:35:00,50.6,49.2,30.08,ENE,60,0.0,0.0,95,0.00,,,0.00,Wunderground v.1.15,2013-05-06 10:35:00,
2013-05-06 06:40:00,50.6,49.2,30.08,ENE,61,0.0,0.0,95,0.00,,,0.00,Wunderground v.1.15,2013-05-06 10:40:00,
2013-05-06 06:50:00,50.6,49.2,30.08,ENE,60,0.0,0.0,95,0.00,,,0.00,Wunderground v.1.15,2013-05-06 10:50:00,
2013-05-06 06:55:00,50.6,49.2,30.08,ENE,60,0.0,0.0,95,0.00,,,0.00,Wunderground v.1.15,2013-05-06 10:55:00,
2013-05-06 07:00:00,50.6,49.2,30.08,ENE,60,0.0,0.0,95,0.00,,,0.00,Wunderground v.1.15,2013-05-06 11:00:00,
2013-05-06 07:05:00,50.6,49.2,30.08,ENE,60,0.0,0.0,95,0.00,,,0.00,Wunderground v.1.15,2013-05-06 11:05:00,
2013-05-06 07:15:00,50.5,49.1,30.08,ENE,60,0.0,0.0,95,0.00,,,0.01,Wunderground v.1.15,2013-05-06 11:15:00,
2013-05-06 07:25:00,50.5,49.4,30.08,ENE,60,0.0,0.0,96,0.00,,,0.01,Wunderground v.1.15,2013-05-06 11:25:00,
2013-05-06 07:30:00,50.6,49.5,30.08,ENE,60,0.0,0.0,96,0.00,,,0.01,Wunderground v.1.15,2013-05-06 11:30:00,
2013-05-06 07:40:00,50.5,49.4,30.08,ENE,60,0.0,0.0,96,0.00,,,0.01,Wunderground v.1.15,2013-05-06 11:40:00,
2013-05-06 07:45:00,50.5,49.4,30.08,ENE,60,0.0,0.0,96,0.00,,,0.01,Wunderground v.1.15,2013-05-06 11:45:00,
2013-05-06 07:55:00,50.5,49.4,30.08,ENE,60,0.0,0.0,96,0.00,,,0.01,Wunderground v.1.15,2013-05-06 11:55:00,
2013-05-06 08:00:00,50.5,49.4,30.08,ENE,60,0.0,1.0,96,0.00,,,0.01,Wunderground v.1.15,2013-05-06 12:00:00,
2013-05-06 08:05:00,50.5,49.4,30.08,ENE,60,0.0,1.0,96,0.00,,,0.01,Wunderground v.1.15,2013-05-06 12:05:00,
2013-05-06 08:15:00,50.5,49.4,30.08,ENE,60,0.0,0.0,96,0.00,,,0.01,Wunderground v.1.15,2013-05-06 12:15:00,
2013-05-06 08:20:00,50.5,49.7,30.08,ENE,60,0.0,0.0,97,0.00,,,0.01,Wunderground v.1.15,2013-05-06 12:20:00,
2013-05-06 08:30:00,50.6,49.8,30.08,NE,56,0.0,0.0,97,0.00,,,0.01,Wunderground v.1.15,2013-05-06 12:30:00,
2013-05-06 08:35:00,50.6,49.8,30.08,NE,56,0.0,0.0,97,0.00,,,0.01,Wunderground v.1.15,2013-05-06 12:35:00,
2013-05-06 08:45:00,50.7,49.9,30.08,NE,56,0.0,0.0,97,0.00,,,0.01,Wunderground v.1.15,2013-05-06 12:45:00,
2013-05-06 08:55:00,50.8,50.0,30.08,NE,56,0.0,1.0,97,0.00,,,0.01,Wunderground v.1.15,2013-05-06 12:55:00,
2013-05-06 09:00:00,50.8,50.0,30.08,NE,56,0.0,0.0,97,0.00,,,0.01,Wunderground v.1.15,2013-05-06 13:00:00,
2013-05-06 09:05:00,50.9,50.1,30.08,ENE,57,0.0,0.0,97,0.00,,,0.01,Wunderground v.1.15,2013-05-06 13:05:00,
2013-05-06 09:15:00,51.0,50.2,30.08,NE,56,0.0,0.0,97,0.00,,,0.01,Wunderground v.1.15,2013-05-06 13:15:00,
2013-05-06 09:20:00,51.0,50.2,30.08,ENE,57,0.0,0.0,97,0.00,,,0.01,Wunderground v.1.15,2013-05-06 13:20:00,
2013-05-06 09:25:00,51.0,50.2,30.08,NE,56,0.0,0.0,97,0.00,,,0.01,Wunderground v.1.15,2013-05-06 13:25:00,
2013-05-06 09:35:00,51.0,50.2,30.08,NE,56,0.0,2.0,97,0.00,,,0.01,Wunderground v.1.15,2013-05-06 13:35:00,
2013-05-06 09:40:00,51.0,50.2,30.08,NE,56,0.0,0.0,97,0.00,,,0.01,Wunderground v.1.15,2013-05-06 13:40:00,
2013-05-06 09:50:00,51.2,50.4,30.08,NE,56,0.0,0.0,97,0.00,,,0.01,Wunderground v.1.15,2013-05-06 13:50:00,
2013-05-06 10:00:00,51.2,50.1,30.08,ENE,57,0.0,0.0,96,0.00,,,0.01,Wunderground v.1.15,2013-05-06 14:00:00,
2013-05-06 10:05:00,51.2,50.1,30.08,NE,56,0.0,0.0,96,0.00,,,0.01,Wunderground v.1.15,2013-05-06 14:05:00,
2013-05-06 10:15:00,51.2,50.4,30.08,NE,56,0.0,0.0,97,0.00,,,0.01,Wunderground v.1.15,2013-05-06 14:15:00,
2013-05-06 10:20:00,51.4,50.6,30.08,NE,56,0.0,0.0,97,0.00,,,0.01,Wunderground v.1.15,2013-05-06 14:20:00,
2013-05-06 10:25:00,51.5,50.7,30.08,ENE,57,0.0,0.0,97,0.00,,,0.01,Wunderground v.1.15,2013-05-06 14:25:00,
2013-05-06 10:35:00,51.6,50.8,30.09,NE,56,0.0,0.0,97,0.00,,,0.02,Wunderground v.1.15,2013-05-06 14:35:00,
2013-05-06 10:40:00,51.7,50.9,30.08,NE,56,0.0,0.0,97,0.00,,,0.02,Wunderground v.1.15,2013-05-06 14:40:00,
2013-05-06 10:50:00,51.9,51.1,30.08,NE,52,0.0,0.0,97,0.05,,,0.03,Wunderground v.1.15,2013-05-06 14:50:00,
2013-05-06 11:00:00,52.1,51.3,30.08,NE,52,0.0,0.0,97,0.00,,,0.03,Wunderground v.1.15,2013-05-06 15:00:00,
2013-05-06 11:05:00,52.2,51.4,30.08,NE,52,0.0,0.0,97,0.00,,,0.03,Wunderground v.1.15,2013-05-06 15:05:00,
2013-05-06 11:15:00,52.3,51.5,30.08,NE,52,0.0,0.0,97,0.00,,,0.03,Wunderground v.1.15,2013-05-06 15:15:00,
2013-05-06 11:25:00,52.3,51.5,30.08,NE,52,0.0,0.0,97,0.00,,,0.03,Wunderground v.1.15,2013-05-06 15:25:00,
2013-05-06 11:35:00,52.4,51.6,30.08,NE,52,0.0,0.0,97,0.00,,,0.03,Wunderground v.1.15,2013-05-06 15:35:00,
2013-05-06 11:40:00,52.5,51.7,30.08,NE,52,0.0,1.0,97,0.00,,,0.03,Wunderground v.1.15,2013-05-06 15:40:00,
2013-05-06 11:50:00,52.6,51.8,30.07,NE,52,0.0,0.0,97,0.00,,,0.03,Wunderground v.1.15,2013-05-06 15:50:00,
2013-05-06 11:55:00,52.7,51.9,30.07,NE,53,0.0,0.0,97,0.00,,,0.03,Wunderground v.1.15,2013-05-06 15:55:00,
2013-05-06 12:05:00,52.7,51.9,30.07,NE,52,0.0,0.0,97,0.00,,,0.03,Wunderground v.1.15,2013-05-06 16:05:00,
2013-05-06 12:15:00,52.8,52.0,30.07,NE,52,0.0,0.0,97,0.00,,,0.03,Wunderground v.1.15,2013-05-06 16:15:00,
2013-05-06 12:25:00,53.0,52.2,30.06,NE,52,0.0,0.0,97,0.00,,,0.03,Wunderground v.1.15,2013-05-06 16:25:00,
2013-05-06 12:30:00,53.1,52.3,30.06,NE,52,1.0,1.0,97,0.00,,,0.03,Wunderground v.1.15,2013-05-06 16:30:00,
2013-05-06 12:40:00,53.0,52.2,30.06,NE,52,0.0,1.0,97,0.00,,,0.03,Wunderground v.1.15,2013-05-06 16:40:00,
2013-05-06 12:50:00,53.0,52.2,30.05,NE,52,0.0,0.0,97,0.00,,,0.03,Wunderground v.1.15,2013-05-06 16:50:00,
2013-05-06 12:55:00,53.1,52.3,30.05,NE,52,0.0,1.0,97,0.00,,,0.03,Wunderground v.1.15,2013-05-06 16:55:00,
2013-05-06 13:05:00,53.3,52.5,30.05,NE,53,0.0,0.0,97,0.00,,,0.03,Wunderground v.1.15,2013-05-06 17:05:00,
2013-05-06 13:15:00,53.5,52.7,30.05,NE,52,0.0,0.0,97,0.00,,,0.03,Wunderground v.1.15,2013-05-06 17:15:00,
2013-05-06 13:25:00,53.6,52.8,30.04,NE,52,0.0,1.0,97,0.00,,,0.03,Wunderground v.1.15,2013-05-06 17:25:00,
2013-05-06 13:30:00,53.7,52.9,30.04,NE,52,0.0,0.0,97,0.00,,,0.03,Wunderground v.1.15,2013-05-06 17:30:00,
2013-05-06 13:40:00,53.9,53.1,30.04,NE,52,0.0,0.0,97,0.00,,,0.03,Wunderground v.1.15,2013-05-06 17:40:00,
2013-05-06 13:45:00,53.9,53.1,30.04,NE,52,0.0,1.0,97,0.00,,,0.03,Wunderground v.1.15,2013-05-06 17:45:00,
2013-05-06 13:55:00,54.1,53.3,30.04,NE,52,0.0,1.0,97,0.00,,,0.03,Wunderground v.1.15,2013-05-06 17:55:00,
2013-05-06 14:00:00,54.2,53.4,30.03,NE,53,0.0,0.0,97,0.00,,,0.03,Wunderground v.1.15,2013-05-06 18:00:00,
2013-05-06 14:05:00,54.2,53.4,30.03,NE,52,0.0,1.0,97,0.00,,,0.03,Wunderground v.1.15,2013-05-06 18:05:00,
2013-05-06 14:15:00,54.2,53.4,30.03,NE,54,1.0,1.0,97,0.00,,,0.03,Wunderground v.1.15,2013-05-06 18:15:00,
2013-05-06 14:20:00,54.2,53.4,30.03,NE,54,0.0,1.0,97,0.00,,,0.03,Wunderground v.1.15,2013-05-06 18:20:00,
2013-05-06 14:30:00,54.4,53.6,30.03,SSE,162,0.0,0.0,97,0.00,,,0.03,Wunderground v.1.15,2013-05-06 18:30:00,
2013-05-06 14:35:00,54.5,53.7,30.02,SSE,161,0.0,0.0,97,0.00,,,0.03,Wunderground v.1.15,2013-05-06 18:35:00,
2013-05-06 14:45:00,54.8,54.0,30.03,SSE,147,0.0,0.0,97,0.00,,,0.03,Wunderground v.1.15,2013-05-06 18:45:00,
2013-05-06 14:55:00,54.9,54.1,30.02,SSE,147,0.0,0.0,97,0.00,,,0.03,Wunderground v.1.15,2013-05-06 18:55:00,
2013-05-06 15:00:00,54.9,54.1,30.02,SSE,147,0.0,0.0,97,0.00,,,0.03,Wunderground v.1.15,2013-05-06 19:00:00,
2013-05-06 15:05:00,54.9,54.1,30.02,SSE,147,0.0,0.0,97,0.00,,,0.03,Wunderground v.1.15,2013-05-06 19:05:00,
2013-05-06 15:15:00,55.0,54.2,30.02,NE,52,0.0,1.0,97,0.00,,,0.03,Wunderground v.1.15,2013-05-06 19:15:00,
2013-05-06 15:20:00,54.9,54.1,30.02,NE,53,0.0,0.0,97,0.00,,,0.03,Wunderground v.1.15,2013-05-06 19:20:00,
2013-05-06 15:25:00,54.8,54.0,30.01,NE,53,0.0,0.0,97,0.00,,,0.03,Wunderground v.1.15,2013-05-06 19:25:00,
2013-05-06 15:35:00,54.9,54.1,30.00,ENE,68,0.0,1.0,97,0.00,,,0.04,Wunderground v.1.15,2013-05-06 19:35:00,
2013-05-06 15:45:00,55.1,54.3,30.00,ENE,68,0.0,1.0,97,0.00,,,0.04,Wunderground v.1.15,2013-05-06 19:45:00,
2013-05-06 15:50:00,55.1,54.3,30.00,ENE,67,0.0,0.0,97,0.00,,,0.04,Wunderground v.1.15,2013-05-06 19:50:00,
2013-05-06 16:00:00,55.1,54.5,30.00,ENE,68,0.0,2.0,98,0.00,,,0.04,Wunderground v.1.15,2013-05-06 20:00:00,
2013-05-06 16:05:00,55.0,54.4,29.99,ENE,67,0.0,2.0,98,0.00,,,0.04,Wunderground v.1.15,2013-05-06 20:05:00,
2013-05-06 16:14:00,54.9,54.3,29.99,ENE,66,0.0,1.0,98,0.00,,,0.04,Wunderground v.1.15,2013-05-06 20:14:00,
2013-05-06 16:20:00,54.9,54.3,29.99,ENE,66,0.0,0.0,98,0.00,,,0.04,Wunderground v.1.15,2013-05-06 20:20:00,
2013-05-06 16:25:00,54.9,54.3,29.98,ENE,64,1.0,2.0,98,0.00,,,0.05,Wunderground v.1.15,2013-05-06 20:25:00,
2013-05-06 16:30:00,54.9,54.3,29.98,ENE,64,1.0,2.0,98,0.00,,,0.05,Wunderground v.1.15,2013-05-06 20:30:00,
2013-05-06 16:40:00,54.9,54.3,29.98,ENE,64,1.0,1.0,98,0.00,,,0.05,Wunderground v.1.15,2013-05-06 20:40:00,
2013-05-06 16:50:00,55.0,54.4,29.98,ENE,70,0.0,0.0,98,0.00,,,0.05,Wunderground v.1.15,2013-05-06 20:50:00,
2013-05-06 16:55:00,55.0,54.4,29.98,ENE,69,0.0,0.0,98,0.00,,,0.05,Wunderground v.1.15,2013-05-06 20:55:00,
2013-05-06 17:05:00,55.0,54.4,29.98,ENE,75,0.0,0.0,98,0.00,,,0.05,Wunderground v.1.15,2013-05-06 21:05:00,
2013-05-06 17:15:00,55.0,54.4,29.98,NE,48,1.0,1.0,98,0.00,,,0.05,Wunderground v.1.15,2013-05-06 21:15:00,
2013-05-06 17:25:00,55.0,54.4,29.98,NE,49,0.0,1.0,98,0.00,,,0.05,Wunderground v.1.15,2013-05-06 21:25:00,
2013-05-06 17:30:00,55.0,54.4,29.97,NE,49,0.0,0.0,98,0.00,,,0.05,Wunderground v.1.15,2013-05-06 21:30:00,
2013-05-06 17:40:00,55.1,54.5,29.97,NE,48,0.0,0.0,98,0.00,,,0.05,Wunderground v.1.15,2013-05-06 21:40:00,
2013-05-06 17:45:00,55.1,54.5,29.97,NE,49,0.0,0.0,98,0.00,,,0.05,Wunderground v.1.15,2013-05-06 21:45:00,
2013-05-06 17:55:00,55.1,54.5,29.97,NE,48,0.0,1.0,98,0.00,,,0.05,Wunderground v.1.15,2013-05-06 21:55:00,
2013-05-06 18:00:00,55.1,54.5,29.96,NE,48,0.0,1.0,98,0.00,,,0.05,Wunderground v.1.15,2013-05-06 22:00:00,
2013-05-06 18:05:00,55.2,54.6,29.96,NE,48,1.0,1.0,98,0.00,,,0.05,Wunderground v.1.15,2013-05-06 22:05:00,
2013-05-06 18:15:00,55.3,54.7,29.96,NE,48,1.0,1.0,98,0.00,,,0.05,Wunderground v.1.15,2013-05-06 22:15:00,
2013-05-06 18:20:00,55.3,54.7,29.95,NE,49,1.0,1.0,98,0.00,,,0.05,Wunderground v.1.15,2013-05-06 22:20:00,
2013-05-06 18:30:00,55.3,54.7,29.96,NE,48,1.0,1.0,98,0.00,,,0.05,Wunderground v.1.15,2013-05-06 22:30:00,
2013-05-06 18:35:00,55.4,54.8,29.95,NE,48,1.0,1.0,98,0.00,,,0.05,Wunderground v.1.15,2013-05-06 22:35:00,
2013-05-06 18:45:00,55.5,55.2,29.95,NE,48,1.0,2.0,99,0.00,,,0.05,Wunderground v.1.15,2013-05-06 22:45:00,
2013-05-06 18:50:00,55.6,55.3,29.96,NE,48,1.0,1.0,99,0.00,,,0.05,Wunderground v.1.15,2013-05-06 22:50:00,
2013-05-06 19:00:00,55.7,55.4,29.95,NE,49,1.0,1.0,99,0.00,,,0.05,Wunderground v.1.15,2013-05-06 23:00:00,
2013-05-06 19:10:00,55.8,55.2,29.95,NE,48,1.0,1.0,98,0.00,,,0.05,Wunderground v.1.15,2013-05-06 23:10:00,
2013-05-06 19:20:00,55.9,55.6,29.96,NE,49,1.0,1.0,99,0.00,,,0.05,Wunderground v.1.15,2013-05-06 23:20:00,
2013-05-06 19:25:00,56.0,55.7,29.96,NE,49,1.0,3.0,99,0.00,,,0.05,Wunderground v.1.15,2013-05-06 23:25:00,
2013-05-06 19:35:00,56.2,55.9,29.96,NE,49,1.0,1.0,99,0.12,,,0.07,Wunderground v.1.15,2013-05-06 23:35:00,
2013-05-06 19:45:00,56.4,56.1,29.95,NE,48,1.0,1.0,99,0.05,,,0.07,Wunderground v.1.15,2013-05-06 23:45:00,
2013-05-06 19:50:00,56.5,56.2,29.95,NE,49,0.0,0.0,99,0.04,,,0.08,Wunderground v.1.15,2013-05-06 23:50:00,
2013-05-06 20:00:00,56.6,56.3,29.95,NE,49,0.0,0.0,99,0.22,,,0.10,Wunderground v.1.15,2013-05-07 00:00:00,
2013-05-06 20:05:00,56.7,56.4,29.95,NE,49,0.0,1.0,99,0.17,,,0.11,Wunderground v.1.15,2013-05-07 00:05:00,
2013-05-06 20:15:00,56.8,56.5,29.94,NE,50,1.0,1.0,99,0.12,,,0.13,Wunderground v.1.15,2013-05-07 00:15:00,
2013-05-06 20:20:00,56.9,56.6,29.95,NE,49,1.0,1.0,99,0.06,,,0.13,Wunderground v.1.15,2013-05-07 00:20:00,
2013-05-06 20:25:00,57.0,56.7,29.95,NE,49,1.0,1.0,99,0.05,,,0.14,Wunderground v.1.15,2013-05-07 00:25:00,
2013-05-06 20:35:00,57.1,56.8,29.95,NE,48,1.0,1.0,99,0.19,,,0.16,Wunderground v.1.15,2013-05-07 00:35:00,
2013-05-06 20:40:00,57.2,56.9,29.95,NE,50,1.0,1.0,99,0.17,,,0.17,Wunderground v.1.15,2013-05-07 00:40:00,
2013-05-06 20:50:00,57.4,57.1,29.95,East,89,1.0,2.0,99,0.10,,,0.19,Wunderground v.1.15,2013-05-07 00:50:00,
2013-05-06 21:00:00,57.6,57.3,29.96,East,89,1.0,1.0,99,0.18,,,0.23,Wunderground v.1.15,2013-05-07 01:00:00,
2013-05-06 21:05:00,57.6,57.3,29.96,East,88,1.0,1.0,99,0.14,,,0.24,Wunderground v.1.15,2013-05-07 01:05:00,
2013-05-06 21:15:00,57.7,57.4,29.96,East,89,0.0,1.0,99,0.07,,,0.25,Wunderground v.1.15,2013-05-07 01:15:00,
2013-05-06 21:25:00,57.8,57.5,29.97,East,89,0.0,1.0,99,0.00,,,0.25,Wunderground v.1.15,2013-05-07 01:25:00,
2013-05-06 21:30:00,57.8,57.5,29.97,East,89,0.0,1.0,99,0.17,,,0.27,Wunderground v.1.15,2013-05-07 01:30:00,
2013-05-06 21:40:00,57.8,57.5,29.97,East,89,0.0,1.0,99,0.05,,,0.27,Wunderground v.1.15,2013-05-07 01:40:00,
2013-05-06 21:45:00,57.9,57.6,29.97,East,89,0.0,1.0,99,0.04,,,0.28,Wunderground v.1.15,2013-05-07 01:45:00,
2013-05-06 21:55:00,58.0,57.7,29.97,East,89,0.0,0.0,99,0.17,,,0.30,Wunderground v.1.15,2013-05-07 01:55:00,
2013-05-06 22:00:00,58.1,57.8,29.97,East,89,0.0,0.0,99,0.10,,,0.30,Wunderground v.1.15,2013-05-07 02:00:00,
2013-05-06 22:05:00,58.1,57.8,29.97,East,89,0.0,0.0,99,0.05,,,0.30,Wunderground v.1.15,2013-05-07 02:05:00,
2013-05-06 22:15:00,58.1,57.8,29.97,East,88,0.0,0.0,99,0.00,,,0.30,Wunderground v.1.15,2013-05-07 02:15:00,
2013-05-06 22:20:00,58.1,57.8,29.97,East,89,0.0,0.0,99,0.00,,,0.30,Wunderground v.1.15,2013-05-07 02:20:00,
2013-05-06 22:30:00,58.2,57.9,29.98,East,89,0.0,1.0,99,0.00,,,0.30,Wunderground v.1.15,2013-05-07 02:30:00,
2013-05-06 22:35:00,58.3,58.0,29.97,East,88,0.0,1.0,99,0.00,,,0.31,Wunderground v.1.15,2013-05-07 02:35:00,
2013-05-06 22:45:00,58.5,58.2,29.97,East,88,0.0,1.0,99,0.07,,,0.32,Wunderground v.1.15,2013-05-07 02:45:00,
2013-05-06 22:55:00,58.5,58.2,29.97,East,89,0.0,1.0,99,0.00,,,0.32,Wunderground v.1.15,2013-05-07 02:55:00,
2013-05-06 23:00:00,58.5,58.2,29.96,East,89,1.0,1.0,99,0.00,,,0.32,Wunderground v.1.15,2013-05-07 03:00:00,
2013-05-06 23:09:00,58.4,58.1,29.96,East,89,1.0,1.0,99,0.00,,,0.32,Wunderground v.1.15,2013-05-07 03:09:00,
2013-05-06 23:15:00,58.4,58.1,29.96,East,89,0.0,1.0,99,0.21,,,0.34,Wunderground v.1.15,2013-05-07 03:15:00,
2013-05-06 23:20:00,58.4,58.1,29.96,East,88,0.0,0.0,99,0.08,,,0.34,Wunderground v.1.15,2013-05-07 03:20:00,
2013-05-06 23:25:00,58.4,58.1,29.96,East,89,0.0,1.0,99,0.05,,,0.34,Wunderground v.1.15,2013-05-07 03:25:00,
2013-05-06 23:35:00,58.4,58.1,29.96,East,88,1.0,1.0,99,0.00,,,0.34,Wunderground v.1.15,2013-05-07 03:35:00,
2013-05-06 23:45:00,58.4,58.1,29.95,East,89,0.0,1.0,99,0.00,,,0.35,Wunderground v.1.15,2013-05-07 03:45:00,
2013-05-06 23:50:00,58.4,58.1,29.95,East,89,1.0,1.0,99,0.05,,,0.36,Wunderground v.1.15,2013-05-07 03:50:00,